Regional Weather Roundup
Issued by NWS

Home | Current Version | Previous Version | Graphics & Text | Print | Product List | Glossary On
Versions: 1 2 3 4 5 6 7 8 9 10 11 12 13 14 15 16 17 18 19 20 21 22 23 24 25 26 27 28 29 30 31 32 33 34 35 36 37 38 39 40 41 42 43 44 45 46 47 48 49 50
000
ASUS43 KMKX 062220
RWRWI

WISCONSIN REGIONAL WEATHER ROUNDUP
NATIONAL WEATHER SERVICE MILWAUKEE/SULLIVAN WI
400 PM CST SAT FEB 06 2016

NOTE: "FAIR" INDICATES FEW OR NO CLOUDS BELOW 12,000 FEET WITH NO
SIGNIFICANT WEATHER AND/OR OBSTRUCTIONS TO VISIBILITY.

WIZ001-002-006>008-014>016-023>028-062300-
NORTHWEST WISCONSIN

CITY           SKY/WX    TMP DP  RH WIND       PRES   REMARKS
SUPERIOR ARPT  CLOUDY    37  26  65 SW15      29.84F WCI  27
ASHLAND        CLOUDY    37  24  59 S13G23    29.86F WCI  29
HAYWARD        CLOUDY    33  23  66 S13       29.89F WCI  24
SIREN          MOSUNNY   34  25  68 S12G17    29.89F WCI  26
CUMBERLAND     PTSUNNY   32  23  69 S14       29.92F WCI  22
RICE LAKE      MOSUNNY   33  24  70 S12       29.95F WCI  24
CHETEK         PTSUNNY   32  24  72 S8G16     29.95F WCI  25
LADYSMITH      CLOUDY    34  24  65 S8        29.96F WCI  28
EAU CLAIRE     CLOUDY    34  23  64 S13       29.98F WCI  25
MENOMONIE      CLOUDY    35  25  66 S12       29.98F WCI  26
NEW RICHMOND   CLOUDY    33  26  75 S15       29.94F WCI  22
OSCEOLA        PTSUNNY   34  28  77 S15G22    29.94F WCI  24
$$

WIZ003>005-009-010-017-018-062300-
NORTH CENTRAL WISCONSIN

CITY           SKY/WX    TMP DP  RH WIND       PRES   REMARKS
MANITOWISH WTR CLOUDY    31  21  65 S8        29.90S WCI  24
ARBOR VITAE    MOSUNNY   33  22  65 S9        29.91F WCI  25
WOODRUFF       MOSUNNY   33  22  65 S9        29.91F WCI  25
RHINELANDER    MOSUNNY   31  20  63 S10       29.94F WCI  22
EAGLE RIVER    CLOUDY    30  19  63 S7        29.92F WCI  23
LAND O LAKES   CLOUDY    30  20  66 S5        29.91F WCI  25
PHILLIPS       CLOUDY    32  22  64 SW10      29.92F WCI  24
TOMAHAWK       MOSUNNY   31  21  64 S3        29.95F
MEDFORD        SUNNY     31  21  67 S13       29.96F WCI  21
MERRILL        SUNNY     32  22  68 SW6       29.98F WCI  26
$$

WIZ029-030-035-036-043>047-062300-
CENTRAL WISCONSIN

CITY           SKY/WX    TMP DP  RH WIND       PRES   REMARKS
WAUSAU         MOSUNNY   32  23  69 S10       29.98F WCI  24
MOSINEE        SUNNY     30  25  80 S12       30.01F WCI  21
MARSHFIELD     SUNNY     34  21  59 SW13      29.99F WCI  25
STEVENS POINT  SUNNY     31  23  72 S9        30.03F WCI  23
WAUPACA        SUNNY     36  25  65 SW8       30.06F WCI  29
WAUTOMA        SUNNY     35  25  67 SW8       30.07F WCI  28
WISC RAPIDS    MOSUNNY   33  22  63 S9        30.04F WCI  25
CAMP DOUGLAS   SUNNY     35  26  68 VRB6      30.05F WCI  30
$$

WIZ011>013-019>022-031-037>040-048>050-062300-
NORTHEAST WISCONSIN

CITY           SKY/WX    TMP DP  RH WIND       PRES   REMARKS
ANTIGO         PTSUNNY   30  21  71 SW12      29.98F WCI  20
SHAWANO        CLOUDY    33  25  71 SW7       30.05F WCI  27
OCONTO         CLOUDY    30  25  80 SW6       30.06S WCI  24
STURGEON BAY   CLOUDY    28  21  74 SW9       30.08S WCI  20
GREEN BAY      CLOUDY    30  24  78 SW9       30.07S WCI  22
MANITOWOC      CLOUDY    32  25  75 SW8       30.09F WCI  25
APPLETON       PTSUNNY   32  23  69 SW12      30.05F WCI  23
CLINTONVILLE   CLOUDY    32  25  74 SW7       30.05F WCI  26
OSHKOSH        CLOUDY    31  24  75 SW9       30.08F WCI  23
$$

WIZ032>034-041-042-053>061-062300-
SOUTHWEST WISCONSIN

CITY           SKY/WX    TMP DP  RH WIND       PRES   REMARKS
LA CROSSE      CLOUDY    32  24  72 S9        30.07F WCI  24
SPARTA         SUNNY     35  25  66 S5        30.07S WCI  31
VIROQUA        CLOUDY    31  24  75 SW9       30.07S WCI  23
BOSCOBEL       SUNNY     35  26  69 S8        30.12S WCI  29
PRAIRIE DU CHI CLOUDY    32  25  76 SW8       30.12S WCI  25
PLATTEVILLE    CLOUDY    32  29  89 SW10      30.12F WCI  23
$$

WIZ056-057-062-063-064-067-068-062300-
SOUTH CENTRAL WISCONSIN

CITY           SKY/WX    TMP DP  RH WIND       PRES   REMARKS
REEDSBURG      SUNNY     33  25  71 SW6       30.08F WCI  28
BARABOO/DELLS  SUNNY     33  24  68 SW7       30.08F WCI  27
LONE ROCK      SUNNY     33  25  72 SW8       30.11F WCI  26
MINERAL POINT  CLOUDY    32  30  93 SW12      30.10F WCI  23
MADISON        MOSUNNY   32  25  75 SW8       30.11S WCI  25
MIDDLETON      MOSUNNY   33  27  76 SW8       30.11S WCI  27
WATERTOWN      CLOUDY    32  27  82 SW12      30.11S WCI  23
MONROE         MOSUNNY   32  28  86 W9        30.12S WCI  24
JANESVILLE     SUNNY     37  28  70 W6        30.13S WCI  33
$$

WIZ051-052-058>065-066-070>072-062300-
SOUTHEAST WISCONSIN

CITY           SKY/WX    TMP DP  RH WIND       PRES   REMARKS
MILWAUKEE      CLOUDY    34  26  72 W9        30.12F WCI  27
WAUKESHA       CLOUDY    30  25  80 SW13      30.13S WCI  20
MILWAUKEE/TIMM CLOUDY    34  25  69 W12       30.12F WCI  25
RACINE         MOSUNNY   35  26  69 W6        30.14F WCI  30
BURLINGTON     SUNNY     34  27  73 W3        30.12F
KENOSHA        SUNNY     37  28  70 W12       30.13F WCI  29
FOND DU LAC    CLOUDY    32  24  72 SW9       30.09S WCI  24
SHEBOYGAN      CLOUDY    31  24  75 SW12      30.09F WCI  22
WEST BEND      CLOUDY    32  27  80 SW10      30.10S WCI  24
JUNEAU         CLOUDY    31  25  80 SW8       30.12S WCI  23
$$

LSZ147-162-062300-
LAKE SUPERIOR

STATION/POSITION TIME  TEMP    WIND        PRES    WAVE
                       AIR SEA DIR/SP/G            HT/PER
                 (UTC) (F)     (DEG/KT/KT) (MB)    (FT/S)
DEVILS ISLAND    2200   33     160/  5/  7 1011.7F
SAXON HARBOR     2100   37                 1011.9F
$$

LMZ867-665-643>646-062300-
LAKE MICHIGAN

STATION/POSITION TIME  TEMP    WIND        PRES    WAVE
                       AIR SEA DIR/SP/G            HT/PER
                 (UTC) (F)     (DEG/KT/KT) (MB)    (FT/S)
CHAMBERS ISLAND  2100   30     200/  6/  9 1017.9S
ALGOMA LAKESHORE 2111          260/ 10/ 13   N/A
KEWAUNEE LAKESHO 2100   30     240/  4/ 11 1017.8F
SHEBOYGAN LAKESH 2200   32     230/  9/ 10 1020.1F
PORT WASHINGTON  2140   34     250/  6/ 13 1020.7S
MILWAUKEE LAKESH 2210   34     250/  7/  8   N/A
KENOSHA   LAKESH 2200   38     240/  7/ 13 1020.3F
$$

TC  - TEMPERATURE IN CELSIUS
VSB - VISIBILITY IN STATUTE MILES
WCI - WIND CHILL INDEX
HX  - HEAT INDEX





USA.gov is the U.S. government's official web portal to all federal, state and local government web resources and services.